EXS49HP EGBB-LIPX

Flight info

Callsign EXS49HP
Flight time 1h 51m
Altitude 37000
Route COWLY L612 MID UL612 OGULO DCT OKASI DCT OKEKO DCT MOU DCT MADIV DCT MOKIP DCT TUFTA DCT GEVEA DCT ORSUD DCT BIBAN DCT SRN DCT TZO
Aircraft B738/M-SDE2E3FGHIRWXY/LB1

Departure

Time 2026-05-05 17:13
Airport Birmingham Airport (EGBB)

Arrival

Time 2026-05-05 19:04
Airport Verona Villafranca Valerio Catullo Airport (LIPX)
Time Latitude Longitude Altitude Speed Heading
2026-05-05 17:02 52.45004 -1.73580 320 ft 0 kts 56°
2026-05-05 17:02 52.45004 -1.73578 320 ft 0 kts 56°
2026-05-05 17:07 52.44997 -1.73596 320 ft 4 kts 56°
2026-05-05 17:07 52.44985 -1.73626 319 ft 4 kts 62°
2026-05-05 17:07 52.44978 -1.73665 320 ft 4 kts 106°
2026-05-05 17:07 52.44991 -1.73696 322 ft 2 kts 146°
2026-05-05 17:08 52.44992 -1.73698 322 ft 0 kts 146°
2026-05-05 17:10 52.44980 -1.73684 321 ft 5 kts 146°
2026-05-05 17:10 52.44932 -1.73638 322 ft 10 kts 167°
2026-05-05 17:10 52.44867 -1.73663 322 ft 9 kts 195°
2026-05-05 17:11 52.44804 -1.73692 322 ft 10 kts 197°
2026-05-05 17:11 52.44736 -1.73737 322 ft 11 kts 224°
2026-05-05 17:11 52.44692 -1.73842 325 ft 11 kts 236°
2026-05-05 17:11 52.44649 -1.73954 326 ft 8 kts 254°
2026-05-05 17:12 52.44677 -1.74015 326 ft 17 kts 325°
2026-05-05 17:12 52.44970 -1.74340 325 ft 84 kts 326°
2026-05-05 17:12 52.45622 -1.75065 324 ft 140 kts 326°
2026-05-05 17:12 52.46515 -1.76066 666 ft 158 kts 328°
2026-05-05 17:13 52.47430 -1.77087 1382 ft 166 kts 328°
2026-05-05 17:13 52.48476 -1.78258 1669 ft 196 kts 327°
2026-05-05 17:13 52.49665 -1.79432 2151 ft 202 kts 342°
2026-05-05 17:13 52.51048 -1.79659 2679 ft 208 kts
2026-05-05 17:14 52.52431 -1.78829 3198 ft 221 kts 31°
2026-05-05 17:14 52.53563 -1.76940 3453 ft 248 kts 59°
2026-05-05 17:14 52.53944 -1.74153 4058 ft 259 kts 92°
2026-05-05 17:14 52.53598 -1.71219 4832 ft 261 kts 101°
2026-05-05 17:15 52.53047 -1.68380 5570 ft 266 kts 119°
2026-05-05 17:15 52.51683 -1.66326 6319 ft 273 kts 153°
2026-05-05 17:15 52.49912 -1.65145 7107 ft 274 kts 158°
2026-05-05 17:15 52.48124 -1.63989 7778 ft 280 kts 158°
2026-05-05 17:16 52.46278 -1.62793 8379 ft 289 kts 159°
2026-05-05 17:16 52.44404 -1.61566 9165 ft 291 kts 159°
2026-05-05 17:16 52.42500 -1.60309 9888 ft 296 kts 159°
2026-05-05 17:16 52.40570 -1.59025 10481 ft 307 kts 159°
2026-05-05 17:17 52.38541 -1.57670 10657 ft 330 kts 159°
2026-05-05 17:17 52.36360 -1.56207 11003 ft 346 kts 159°
2026-05-05 17:17 52.34114 -1.54696 11690 ft 350 kts 159°
2026-05-05 17:17 52.31847 -1.53166 12489 ft 352 kts 159°
2026-05-05 17:18 52.29571 -1.51631 13297 ft 355 kts 159°
2026-05-05 17:18 52.27275 -1.50083 14028 ft 359 kts 159°
2026-05-05 17:18 52.24953 -1.48519 14760 ft 362 kts 159°
2026-05-05 17:18 52.22615 -1.46945 15546 ft 364 kts 159°
2026-05-05 17:19 52.20260 -1.45361 16301 ft 367 kts 159°
2026-05-05 17:19 52.17887 -1.43769 17017 ft 371 kts 159°
2026-05-05 17:19 52.15522 -1.42183 17731 ft 374 kts 159°
2026-05-05 17:19 52.13103 -1.40562 18417 ft 378 kts 159°
2026-05-05 17:20 52.10655 -1.38924 19046 ft 381 kts 159°
2026-05-05 17:20 52.08192 -1.37278 19674 ft 384 kts 159°
2026-05-05 17:20 52.05718 -1.35626 20277 ft 387 kts 159°
2026-05-05 17:20 52.03213 -1.33956 20878 ft 390 kts 159°
2026-05-05 17:21 52.00692 -1.32278 21433 ft 394 kts 159°
2026-05-05 17:21 51.98130 -1.30574 22028 ft 398 kts 159°
2026-05-05 17:21 51.95560 -1.28868 22597 ft 401 kts 160°
2026-05-05 17:22 51.90352 -1.25415 23697 ft 408 kts 160°
2026-05-05 17:22 51.87719 -1.23672 24180 ft 410 kts 160°
2026-05-05 17:22 51.85071 -1.21921 24714 ft 410 kts 160°
2026-05-05 17:22 51.82424 -1.20174 25240 ft 411 kts 160°
2026-05-05 17:23 51.79770 -1.18424 25720 ft 413 kts 160°
2026-05-05 17:23 51.77106 -1.16669 26165 ft 415 kts 160°
2026-05-05 17:23 51.74451 -1.14789 26632 ft 418 kts 158°
2026-05-05 17:23 51.71820 -1.12783 27107 ft 419 kts 156°
2026-05-05 17:24 51.69190 -1.10727 27579 ft 421 kts 156°
2026-05-05 17:24 51.66579 -1.08682 28031 ft 422 kts 156°
2026-05-05 17:24 51.63927 -1.06618 28482 ft 424 kts 157°
2026-05-05 17:24 51.61259 -1.04559 28894 ft 425 kts 157°
2026-05-05 17:25 51.58586 -1.02509 29300 ft 427 kts 157°
2026-05-05 17:25 51.56817 -1.01087 29568 ft 429 kts 153°
2026-05-05 17:25 51.53424 -0.97630 30095 ft 432 kts 148°
2026-05-05 17:25 51.50930 -0.94915 30393 ft 434 kts 147°
2026-05-05 17:26 51.48466 -0.92208 30661 ft 436 kts 147°
2026-05-05 17:26 51.45950 -0.89456 30928 ft 438 kts 147°
2026-05-05 17:26 51.43430 -0.86725 31253 ft 439 kts 148°
2026-05-05 17:26 51.40901 -0.84009 31635 ft 438 kts 148°
2026-05-05 17:27 51.38365 -0.81301 32051 ft 437 kts 148°
2026-05-05 17:27 51.35832 -0.78606 32400 ft 437 kts 148°
2026-05-05 17:27 51.33304 -0.75927 32726 ft 437 kts 148°
2026-05-05 17:27 51.30759 -0.73235 33049 ft 438 kts 148°
2026-05-05 17:28 51.28215 -0.70549 33388 ft 438 kts 148°
2026-05-05 17:28 51.25665 -0.67861 33778 ft 437 kts 148°
2026-05-05 17:28 51.23132 -0.65193 34091 ft 437 kts 148°
2026-05-05 17:28 51.20589 -0.62518 34338 ft 437 kts 148°
2026-05-05 17:29 51.18043 -0.59845 34584 ft 438 kts 148°
2026-05-05 17:29 51.15536 -0.57215 34855 ft 437 kts 148°
2026-05-05 17:29 51.12995 -0.54553 35127 ft 437 kts 148°
2026-05-05 17:29 51.10449 -0.51889 35381 ft 438 kts 148°
2026-05-05 17:30 51.07906 -0.49232 35630 ft 438 kts 148°
2026-05-05 17:30 51.05355 -0.46571 35899 ft 438 kts 148°
2026-05-05 17:30 51.02809 -0.43918 36157 ft 437 kts 148°
2026-05-05 17:30 51.00262 -0.41267 36391 ft 438 kts 148°
2026-05-05 17:31 50.97705 -0.38610 36637 ft 438 kts 148°
2026-05-05 17:31 50.95161 -0.35969 36945 ft 436 kts 148°
2026-05-05 17:31 50.92603 -0.33318 36916 ft 440 kts 148°
2026-05-05 17:32 50.87528 -0.28068 36934 ft 436 kts 148°
2026-05-05 17:32 50.82490 -0.22869 36937 ft 431 kts 148°
2026-05-05 17:33 50.77467 -0.17701 36941 ft 430 kts 148°
2026-05-05 17:33 50.72444 -0.12546 36938 ft 430 kts 148°
2026-05-05 17:34 50.67414 -0.07397 36936 ft 431 kts 148°
2026-05-05 17:34 50.62407 -0.02285 36920 ft 431 kts 148°
2026-05-05 17:35 50.57360 0.02854 36929 ft 431 kts 148°
2026-05-05 17:35 50.52305 0.07989 36930 ft 432 kts 148°
2026-05-05 17:36 50.47248 0.13114 36924 ft 432 kts 148°
2026-05-05 17:36 50.42213 0.18201 36920 ft 433 kts 148°
2026-05-05 17:37 50.37154 0.23300 36924 ft 432 kts 148°
2026-05-05 17:37 50.32101 0.28380 36910 ft 431 kts 148°
2026-05-05 17:38 50.27048 0.33446 36912 ft 430 kts 148°
2026-05-05 17:38 50.22011 0.38487 36913 ft 429 kts 148°
2026-05-05 17:39 50.16982 0.43504 36920 ft 428 kts 148°
2026-05-05 17:39 50.12009 0.48452 36912 ft 426 kts 148°
2026-05-05 17:40 50.07015 0.53405 36897 ft 424 kts 148°
2026-05-05 17:40 50.02039 0.58336 36902 ft 423 kts 148°
2026-05-05 17:41 49.97071 0.63244 36905 ft 423 kts 148°
2026-05-05 17:41 49.92121 0.68121 36909 ft 424 kts 148°
2026-05-05 17:42 49.87127 0.73029 36895 ft 425 kts 148°
2026-05-05 17:42 49.82110 0.77948 36894 ft 427 kts 148°
2026-05-05 17:43 49.77073 0.82874 36881 ft 429 kts 148°
2026-05-05 17:43 49.72010 0.87814 36888 ft 430 kts 148°
2026-05-05 17:44 49.66939 0.92749 36877 ft 431 kts 148°
2026-05-05 17:44 49.61885 0.97655 36867 ft 432 kts 148°
2026-05-05 17:45 49.56797 1.02582 36862 ft 431 kts 148°
2026-05-05 17:45 49.51713 1.07494 36861 ft 431 kts 148°
2026-05-05 17:46 49.46637 1.12387 36854 ft 430 kts 148°
2026-05-05 17:46 49.41570 1.17259 36856 ft 429 kts 148°
2026-05-05 17:47 49.36784 1.22687 36860 ft 428 kts 141°
2026-05-05 17:47 49.32173 1.28469 36853 ft 427 kts 141°
2026-05-05 17:48 49.27563 1.34220 36850 ft 427 kts 141°
2026-05-05 17:48 49.22962 1.39881 36855 ft 426 kts 142°
2026-05-05 17:49 49.18336 1.45528 36853 ft 426 kts 142°
2026-05-05 17:49 49.13701 1.51167 36850 ft 426 kts 142°
2026-05-05 17:50 49.09068 1.56791 36848 ft 426 kts 142°
2026-05-05 17:50 49.04418 1.62422 36845 ft 426 kts 142°
2026-05-05 17:51 48.99775 1.68031 36844 ft 426 kts 142°
2026-05-05 17:51 48.95905 1.72695 36835 ft 427 kts 142°
2026-05-05 17:52 48.90477 1.79223 36827 ft 427 kts 142°
2026-05-05 17:52 48.86565 1.83916 36833 ft 428 kts 142°
2026-05-05 17:53 48.81882 1.89521 36833 ft 429 kts 142°
2026-05-05 17:53 48.77190 1.95123 36831 ft 429 kts 142°
2026-05-05 17:54 48.72490 2.00721 36831 ft 430 kts 142°
2026-05-05 17:54 48.67814 2.06278 36830 ft 430 kts 142°
2026-05-05 17:55 48.63092 2.11878 36837 ft 430 kts 142°
2026-05-05 17:55 48.58375 2.17455 36825 ft 431 kts 142°
2026-05-05 17:56 48.53905 2.23468 36833 ft 430 kts 135°
2026-05-05 17:56 48.49717 2.29953 36835 ft 431 kts 135°
2026-05-05 17:57 48.45510 2.36426 36826 ft 433 kts 135°
2026-05-05 17:57 48.41259 2.42859 36811 ft 433 kts 136°
2026-05-05 17:58 48.37018 2.49233 36814 ft 433 kts 136°
2026-05-05 17:58 48.32762 2.55621 36822 ft 432 kts 136°
2026-05-05 17:59 48.28391 2.61804 36806 ft 431 kts 144°
2026-05-05 17:59 48.23166 2.66116 36830 ft 429 kts 157°
2026-05-05 18:00 48.17781 2.69963 36839 ft 430 kts 152°
2026-05-05 18:00 48.12553 2.74353 36818 ft 431 kts 152°
2026-05-05 18:01 48.07265 2.78577 36826 ft 431 kts 156°
2026-05-05 18:01 48.01763 2.82143 36831 ft 431 kts 159°
2026-05-05 18:02 47.96238 2.85541 36823 ft 432 kts 159°
2026-05-05 18:02 47.90681 2.89013 36827 ft 433 kts 158°
2026-05-05 18:03 47.85123 2.92524 36828 ft 433 kts 158°
2026-05-05 18:03 47.79568 2.96038 36821 ft 434 kts 158°
2026-05-05 18:04 47.74008 2.99546 36827 ft 433 kts 159°
2026-05-05 18:04 47.68451 3.03043 36831 ft 433 kts 159°
2026-05-05 18:05 47.62946 3.06498 36839 ft 433 kts 159°
2026-05-05 18:05 47.57389 3.09980 36844 ft 432 kts 159°
2026-05-05 18:06 47.51841 3.13445 36843 ft 432 kts 159°
2026-05-05 18:06 47.46293 3.16897 36847 ft 432 kts 159°
2026-05-05 18:07 47.40745 3.20342 36847 ft 432 kts 159°
2026-05-05 18:07 47.35194 3.23782 36845 ft 432 kts 159°
2026-05-05 18:08 47.29684 3.27190 36849 ft 432 kts 159°
2026-05-05 18:08 47.24138 3.30613 36849 ft 432 kts 159°
2026-05-05 18:09 47.18599 3.34023 36849 ft 431 kts 159°
2026-05-05 18:09 47.13068 3.37421 36852 ft 431 kts 159°
2026-05-05 18:09 47.10373 3.39356 36833 ft 434 kts 147°
2026-05-05 18:10 47.08124 3.42338 36871 ft 438 kts 131°
2026-05-05 18:10 47.06445 3.46081 36854 ft 443 kts 118°
2026-05-05 18:10 47.05197 3.50225 36867 ft 444 kts 115°
2026-05-05 18:11 47.02854 3.58614 36854 ft 445 kts 115°
2026-05-05 18:11 47.00512 3.66958 36854 ft 445 kts 115°
2026-05-05 18:12 46.98095 3.75366 36853 ft 445 kts 116°
2026-05-05 18:12 46.95665 3.83707 36853 ft 445 kts 116°
2026-05-05 18:13 46.93238 3.91986 36848 ft 446 kts 116°
2026-05-05 18:13 46.90791 4.00312 36851 ft 446 kts 116°
2026-05-05 18:14 46.88332 4.08651 36832 ft 446 kts 116°
2026-05-05 18:14 46.85869 4.16980 36853 ft 446 kts 116°
2026-05-05 18:15 46.83401 4.25294 36869 ft 447 kts 116°
2026-05-05 18:15 46.80915 4.33642 36849 ft 447 kts 116°
2026-05-05 18:16 46.78427 4.41968 36855 ft 448 kts 116°
2026-05-05 18:16 46.75929 4.50303 36839 ft 448 kts 116°
2026-05-05 18:17 46.73424 4.58630 36859 ft 448 kts 117°
2026-05-05 18:17 46.70914 4.66945 36850 ft 449 kts 117°
2026-05-05 18:18 46.68395 4.75266 36847 ft 449 kts 117°
2026-05-05 18:18 46.65868 4.83583 36854 ft 449 kts 117°
2026-05-05 18:19 46.63355 4.91827 36857 ft 448 kts 117°
2026-05-05 18:19 46.60820 5.00118 36865 ft 448 kts 117°
2026-05-05 18:20 46.58277 5.08405 36865 ft 448 kts 117°
2026-05-05 18:20 46.55727 5.16688 36866 ft 449 kts 117°
2026-05-05 18:21 46.53168 5.24973 36846 ft 449 kts 117°
2026-05-05 18:21 46.50619 5.33199 36870 ft 448 kts 118°
2026-05-05 18:22 46.48051 5.41460 36877 ft 449 kts 118°
2026-05-05 18:22 46.45481 5.49701 36887 ft 449 kts 118°
2026-05-05 18:23 46.42898 5.57957 36882 ft 449 kts 118°
2026-05-05 18:23 46.40311 5.66198 36878 ft 449 kts 118°
2026-05-05 18:24 46.37715 5.74440 36893 ft 450 kts 118°
2026-05-05 18:24 46.35109 5.82688 36897 ft 451 kts 119°
2026-05-05 18:25 46.32504 5.90908 36893 ft 452 kts 119°
2026-05-05 18:25 46.29871 5.99191 36897 ft 453 kts 119°
2026-05-05 18:26 46.27230 6.07477 36881 ft 454 kts 119°
2026-05-05 18:26 46.24617 6.15797 36883 ft 455 kts 117°
2026-05-05 18:27 46.22249 6.24295 36887 ft 456 kts 115°
2026-05-05 18:27 46.19928 6.32843 36889 ft 457 kts 116°
2026-05-05 18:28 46.16396 6.45616 36895 ft 457 kts 116°
2026-05-05 18:28 46.14016 6.54112 36910 ft 457 kts 117°
2026-05-05 18:29 46.11623 6.62618 36907 ft 458 kts 117°
2026-05-05 18:29 46.09239 6.71069 36918 ft 459 kts 117°
2026-05-05 18:30 46.06828 6.79593 36906 ft 458 kts 117°
2026-05-05 18:30 46.04419 6.88079 36911 ft 457 kts 117°
2026-05-05 18:31 46.02012 6.96525 36917 ft 455 kts 117°
2026-05-05 18:31 45.99615 7.04916 36940 ft 449 kts 117°
2026-05-05 18:32 45.97233 7.13219 36909 ft 449 kts 117°
2026-05-05 18:32 45.95252 7.21730 36926 ft 458 kts 105°
2026-05-05 18:33 45.94253 7.30810 36946 ft 463 kts 104°
2026-05-05 18:33 45.93217 7.40013 36563 ft 470 kts 105°
2026-05-05 18:34 45.92667 7.44603 36277 ft 463 kts 106°
2026-05-05 18:34 45.92011 7.49098 35861 ft 457 kts 109°
2026-05-05 18:34 45.91268 7.53524 35466 ft 453 kts 110°
2026-05-05 18:34 45.90495 7.57895 35071 ft 451 kts 111°
2026-05-05 18:35 45.89717 7.62240 34673 ft 448 kts 111°
2026-05-05 18:35 45.89206 7.65103 34448 ft 446 kts 111°
2026-05-05 18:35 45.88438 7.69433 34018 ft 446 kts 112°
2026-05-05 18:35 45.87683 7.73726 33600 ft 442 kts 112°
2026-05-05 18:36 45.86937 7.77997 33200 ft 440 kts 111°
2026-05-05 18:36 45.86196 7.82249 32802 ft 438 kts 111°
2026-05-05 18:36 45.85458 7.86480 32419 ft 436 kts 111°
2026-05-05 18:36 45.84721 7.90699 32008 ft 434 kts 112°
2026-05-05 18:37 45.83990 7.94878 31647 ft 430 kts 112°
2026-05-05 18:37 45.83262 7.99029 31316 ft 427 kts 112°
2026-05-05 18:37 45.82537 8.03152 30937 ft 426 kts 112°
2026-05-05 18:37 45.81812 8.07259 30598 ft 424 kts 111°
2026-05-05 18:38 45.81091 8.11338 30200 ft 420 kts 111°
2026-05-05 18:38 45.80376 8.15379 29828 ft 416 kts 112°
2026-05-05 18:38 45.79666 8.19381 29440 ft 410 kts 111°
2026-05-05 18:38 45.78968 8.23313 29031 ft 406 kts 111°
2026-05-05 18:39 45.78273 8.27209 28672 ft 402 kts 111°
2026-05-05 18:39 45.77590 8.31029 28306 ft 398 kts 111°
2026-05-05 18:39 45.76904 8.34853 27937 ft 395 kts 111°
2026-05-05 18:39 45.76220 8.38656 27563 ft 392 kts 111°
2026-05-05 18:40 45.75542 8.42421 27214 ft 389 kts 111°
2026-05-05 18:40 45.74869 8.46153 26864 ft 386 kts 111°
2026-05-05 18:40 45.74198 8.49870 26502 ft 384 kts 111°
2026-05-05 18:40 45.73531 8.53554 26143 ft 381 kts 111°
2026-05-05 18:41 45.72865 8.57223 25807 ft 379 kts 111°
2026-05-05 18:41 45.72205 8.60857 25455 ft 377 kts 111°
2026-05-05 18:41 45.71546 8.64473 25108 ft 374 kts 111°
2026-05-05 18:41 45.70889 8.68073 24735 ft 373 kts 111°
2026-05-05 18:42 45.70244 8.71600 24399 ft 371 kts 111°
2026-05-05 18:42 45.69584 8.75202 24061 ft 369 kts 111°
2026-05-05 18:42 45.68942 8.78703 23726 ft 367 kts 110°
2026-05-05 18:42 45.68292 8.82237 23356 ft 366 kts 110°
2026-05-05 18:43 45.67645 8.85747 22965 ft 364 kts 110°
2026-05-05 18:43 45.67002 8.89236 22603 ft 362 kts 110°
2026-05-05 18:43 45.66362 8.92701 22247 ft 360 kts 110°
2026-05-05 18:43 45.65725 8.96144 21903 ft 357 kts 110°
2026-05-05 18:44 45.65091 8.99560 21569 ft 354 kts 110°
2026-05-05 18:44 45.64461 9.02959 21228 ft 352 kts 110°
2026-05-05 18:44 45.63857 9.06321 20986 ft 347 kts 110°
2026-05-05 18:44 45.63267 9.09654 20655 ft 345 kts 110°
2026-05-05 18:45 45.62679 9.12975 20334 ft 344 kts 110°
2026-05-05 18:45 45.62093 9.16278 20007 ft 342 kts 109°
2026-05-05 18:45 45.61506 9.19577 19692 ft 341 kts 109°
2026-05-05 18:45 45.60923 9.22842 19362 ft 339 kts 109°
2026-05-05 18:46 45.60338 9.26107 19040 ft 338 kts 109°
2026-05-05 18:46 45.59754 9.29362 18715 ft 337 kts 109°
2026-05-05 18:46 45.59170 9.32610 18381 ft 337 kts 109°
2026-05-05 18:46 45.58588 9.35841 18022 ft 336 kts 109°
2026-05-05 18:47 45.58013 9.39029 17806 ft 335 kts 109°
2026-05-05 18:47 45.57432 9.42250 17455 ft 333 kts 109°
2026-05-05 18:47 45.56855 9.45436 17133 ft 331 kts 109°
2026-05-05 18:47 45.56281 9.48602 16817 ft 329 kts 109°
2026-05-05 18:48 45.55645 9.51728 16485 ft 325 kts 115°
2026-05-05 18:48 45.54764 9.54661 16181 ft 320 kts 120°
2026-05-05 18:48 45.53796 9.57523 15869 ft 318 kts 121°
2026-05-05 18:48 45.52818 9.60356 15561 ft 317 kts 121°
2026-05-05 18:49 45.51854 9.63171 15243 ft 316 kts 120°
2026-05-05 18:49 45.50901 9.65987 14920 ft 314 kts 120°
2026-05-05 18:49 45.49958 9.68799 14598 ft 313 kts 119°
2026-05-05 18:49 45.49023 9.71603 14279 ft 312 kts 119°
2026-05-05 18:50 45.48096 9.74394 13956 ft 311 kts 119°
2026-05-05 18:50 45.47173 9.77177 13605 ft 310 kts 118°
2026-05-05 18:50 45.46252 9.79953 13199 ft 309 kts 118°
2026-05-05 18:50 45.45334 9.82719 12873 ft 308 kts 118°
2026-05-05 18:51 45.44422 9.85468 12571 ft 306 kts 118°
2026-05-05 18:51 45.43516 9.88193 12267 ft 304 kts 118°
2026-05-05 18:51 45.42615 9.90904 11952 ft 302 kts 118°
2026-05-05 18:51 45.41729 9.93568 11653 ft 300 kts 118°
2026-05-05 18:52 45.40836 9.96244 11359 ft 299 kts 118°
2026-05-05 18:52 45.39948 9.98906 11058 ft 297 kts 118°
2026-05-05 18:52 45.39063 10.01554 10771 ft 295 kts 118°
2026-05-05 18:52 45.38183 10.04183 10484 ft 294 kts 118°
2026-05-05 18:53 45.37307 10.06803 10205 ft 292 kts 118°
2026-05-05 18:53 45.36434 10.09411 9917 ft 291 kts 118°
2026-05-05 18:53 45.35568 10.11994 9589 ft 289 kts 119°
2026-05-05 18:53 45.34705 10.14571 9294 ft 288 kts 119°
2026-05-05 18:54 45.33843 10.17139 9014 ft 286 kts 119°
2026-05-05 18:54 45.32991 10.19673 8731 ft 283 kts 118°
2026-05-05 18:54 45.32141 10.22200 8446 ft 282 kts 119°
2026-05-05 18:54 45.31375 10.24767 8161 ft 282 kts 110°
2026-05-05 18:55 45.30895 10.27429 7895 ft 281 kts 105°
2026-05-05 18:55 45.30484 10.30136 7627 ft 280 kts 105°
2026-05-05 18:55 45.30079 10.32844 7347 ft 279 kts 105°
2026-05-05 18:55 45.29669 10.35525 7080 ft 277 kts 105°
2026-05-05 18:56 45.29249 10.38195 6804 ft 276 kts 105°
2026-05-05 18:56 45.28823 10.40857 6528 ft 275 kts 106°
2026-05-05 18:56 45.28396 10.43493 6261 ft 274 kts 106°
2026-05-05 18:56 45.27966 10.46126 5989 ft 273 kts 106°
2026-05-05 18:57 45.27541 10.48715 5895 ft 264 kts 106°
2026-05-05 18:57 45.27129 10.51218 5755 ft 258 kts 106°
2026-05-05 18:57 45.26724 10.53670 5597 ft 252 kts 106°
2026-05-05 18:57 45.26327 10.56069 5438 ft 247 kts 106°
2026-05-05 18:58 45.25932 10.58442 5239 ft 245 kts 106°
2026-05-05 18:58 45.25550 10.60736 5075 ft 238 kts 106°
2026-05-05 18:58 45.25178 10.62976 4877 ft 230 kts 107°
2026-05-05 18:58 45.24857 10.65167 4554 ft 225 kts 96°
2026-05-05 18:59 45.25170 10.67294 4223 ft 220 kts 63°
2026-05-05 18:59 45.26067 10.69017 3833 ft 216 kts 49°
2026-05-05 18:59 45.27070 10.70567 3525 ft 209 kts 47°
2026-05-05 18:59 45.28057 10.72028 3244 ft 201 kts 47°
2026-05-05 19:00 45.29013 10.73427 2967 ft 193 kts 47°
2026-05-05 19:00 45.29933 10.74772 2722 ft 186 kts 47°
2026-05-05 19:00 45.30822 10.76072 2478 ft 181 kts 47°
2026-05-05 19:00 45.31671 10.77314 2240 ft 173 kts 47°
2026-05-05 19:01 45.32500 10.78527 2024 ft 168 kts 48°
2026-05-05 19:01 45.33275 10.79658 1825 ft 154 kts 48°
2026-05-05 19:01 45.34001 10.80720 1600 ft 147 kts 48°
2026-05-05 19:01 45.34713 10.81763 1394 ft 146 kts 48°
2026-05-05 19:02 45.35419 10.82794 1227 ft 145 kts 48°
2026-05-05 19:02 45.36123 10.83824 1027 ft 146 kts 47°
2026-05-05 19:02 45.36837 10.84869 807 ft 148 kts 47°
2026-05-05 19:02 45.37565 10.85922 597 ft 149 kts 47°
2026-05-05 19:03 45.38280 10.86965 404 ft 148 kts 47°
2026-05-05 19:03 45.38988 10.88005 238 ft 143 kts 47°
2026-05-05 19:03 45.39607 10.88906 239 ft 107 kts 46°
2026-05-05 19:03 45.40011 10.89494 243 ft 50 kts 46°
2026-05-05 19:04 45.40184 10.89747 245 ft 23 kts 45°
2026-05-05 19:04 45.40278 10.89925 245 ft 22 kts 72°
2026-05-05 19:04 45.40314 10.90138 243 ft 22 kts 75°
2026-05-05 19:04 45.40323 10.90288 241 ft 14 kts 128°
2026-05-05 19:05 45.40258 10.90384 241 ft 12 kts 111°
2026-05-05 19:05 45.40300 10.90479 241 ft 12 kts 46°
2026-05-05 19:05 45.40354 10.90556 241 ft 7 kts 46°
2026-05-05 19:05 45.40348 10.90610 241 ft 7 kts 135°
2026-05-05 19:06 45.40332 10.90633 241 ft 1 kts 135°
2026-05-05 19:06 45.40329 10.90637 241 ft 0 kts 136°